Location: Unspecified
(0.0000°N, 0.0000°E)
Time: 09:56:01
(UTC+00:00)

Vanguard 3 - Pass Details

Date: 15 December 2017
Orbit: 508 x 3264 km, 33.3° (Epoch: 18 July)

Event Time Altitude Azimuth Distance (km) Brightness Sun altitude
Rises 21:12:49 0° 282° (WNW) 4,232 11.3 -44.2°
Reaches altitude 10° 21:15:25 10° 274° (W) 3,569 10.8 -44.7°
Maximum altitude 21:24:29 42° 206° (SSW) 2,753 9.9 -46.6°
Drops below altitude 10° 21:39:28 10° 141° (SE) 5,745 11.4 -49.6°
Sets 21:45:05 0° 135° (SE) 7,031 11.9 -50.7°
